Location: Unspecified
(0.0000°N, 0.0000°E)
Time: 10:45:24
(UTC+00:00)

MIDAS 4 DEB - Pass Details

Date: 12 November 2025
Orbit: 3271 x 3959 km, 95.8° (Epoch: 26 July)

Event Time Altitude Azimuth Distance (km) Brightness Sun altitude
Exits shadow 19:25:13 28° 86° (E) 5,349 ? -23.9°
Maximum altitude 19:29:18 30° 105° (ESE) 5,281 ? -24.9°
Drops below altitude 10° 19:44:38 10° 159° (SSE) 7,004 ? -28.5°
Sets 19:50:19 0° 168° (SSE) 8,092 ? -29.8°
